Tracking 31027 objects as of 19-Jul-2025
HD Live streaming from Space Station
objects crossing your sky now

NOAA 16 DEB

Track NOAA 16 DEB now!
10-day predictions


NORAD ID: 41052
Int'l Code: 2000-055K
Perigee: 753.5 km
Apogee: 992.8 km
Inclination: 98.6 °
Period: 102.3 minutes
Semi major axis: 7244 km
RCS: Unknown
Launch date: September 21, 2000
Source: United States (US)
Launch site: AIR FORCE WESTERN TEST RANGE (AFWTR)

Note: This is SATELLITE DEBRIS
Your satellite tracking list
IRIDIUM 106
Track 1 satellite(s)




NASA's NSSDC Master Catalog

Two Line Element Set (TLE):
1 41052U 00055K   25199.49410161  .00000767  00000-0  41873-3 0  9990
2 41052  98.6182 220.7264 0165116  56.7558 304.9315 14.08063045494730
Source of the keplerian elements: AFSPC